Regional Weather Roundup
Issued by NWS Midland/Odessa, TX

Skip options and go directly to product.
Home | Oldest Version | Previous Version | Current Version | All | Graphics & Text | Save Text | Print | Product List | Glossary On

Skip product version selection by date and time.   
997
ASUS44 KMAF 291310
RWRMAF
MIDLAND AREA WEATHER ROUNDUP
NATIONAL WEATHER SERVICE MIDLAND TX
800 AM CDT SUN MAR 29 2015

...IN SOUTHWEST TEXAS AND SOUTHEAST NEW MEXICO...

CITY           SKY/WX    TMP DP  RH WIND       PRES   REMARKS
ALPINE         PTCLDY    56  18  22 CALM      30.21R
ANDREWS        FAIR      52  37  57 W7        30.03R
ARTESIA        PTCLDY    46  27  46 NE7       30.08R
BIG SPRING     CLEAR     54  41  63 SE7       30.03R
CARLSBAD       CLEAR     51  25  36 NW10      30.06R
DRYDEN           N/A     50  43  77 CALM      30.04R
FORT STOCKTON  CLEAR     61  25  25 SW14      30.04R
GUAD PASS      PTCLDY    60   8  12 W9        30.21R
HOBBS          CLEAR     41  32  70 W10       30.07R WCI  35
MARFA          PTCLDY    41  25  52 CALM      30.21R
MIDLAND AIRPK  CLEAR     56  42  59 SW5       30.03R
MIDLAND INTL   CLEAR     53  41  63 SW5       30.02R
ODESSA         CLEAR     54  39  57 SW7       30.02R
PECOS          CLEAR     48  33  55 W3        30.03R
PRESIDIO       FAIR      52  32  45 N3        30.11R
SEMINOLE       CLEAR     48  37  66 W12       30.05R
SNYDER         CLEAR     50  39  66 SW6       30.00R
WINK           CLEAR     40  35  83 N9        30.02R WCI  34
$$
...OTHER STATIONS IN TEXAS...

CITY           SKY/WX    TMP DP  RH WIND       PRES   REMARKS
ABILENE        CLEAR     63  41  44 S18G24    29.97R
AMARILLO       CLEAR     56  30  37 NW17      30.02R
AUSTIN         CLOUDY    57  55  93 S10       30.09R
BROWNSVILLE    CLEAR     66  63  90 S10       30.11R
CORPUS CHRISTI CLEAR     60  59  96 S8        30.11R
DALLAS FTW     CLEAR     55  47  74 SE8       30.03R
DEL RIO        CLEAR     57  47  69 E8        30.04R
EL PASO        CLEAR     53  14  21 E5        30.14R
HOUSTON INT    MOCLDY    61  60  97 S6        30.15R
LUBBOCK        CLEAR     47  33  58 W9        29.99R
SAN ANGELO     CLEAR     51  43  74 S8        30.01R
SAN ANTONIO    PTCLDY    57  55  93 S6        30.10R
WACO           CLEAR     57  50  77 S13       30.05R
WICHITA FALLS  NOT AVBL
$$
...OTHER LOCATIONS IN NEW MEXICO...

CITY           SKY/WX    TMP DP  RH WIND       PRES   REMARKS
ALAMAGORDO     PTCLDY    55   9  15 NE10      30.15R
ALBUQUERQUE    CLEAR     49  14  24 SE6       30.22R
CANNON AFB     CLEAR     53  25  33 NW16G23   30.05R
CLOVIS         CLEAR     48  27  43 W15       30.04R
HOLLOMAN AFB   PTCLDY    44  13  28 NE10      30.13R WCI  39
ROSWELL        CLEAR     61  17  18 NW8       30.07R
RUIDOSO        CLEAR     54   9  16 W9G22     30.29R
SANTA FE       CLEAR     36  18  48 NW3       30.23R
TRUTH OR CONSE CLEAR     58   3  11 NW14      30.19R
TUCUMCARI      CLEAR     54  23  30 W18       30.05R
$$

USA.gov is the U.S. government's official web portal to all federal, state and local government web resources and services.